Location: Berkhof
(52.6038°N, 9.7230°E)
Time: 12:51:13
(UTC+00:00)

Daily predictions for brighter satellites

Satellite Brightness Start Highest point End
(mag) Time Altitude Azimuth Time Altitude Azimuth Time Altitude Azimuth
Nadezhda 4 Rocket 4.3 15:36:02 10° NNW 15:42:14 73° W 15:48:18 10° S
CZ-4C R/B 3.0 15:40:56 10° NW 15:46:58 49° NNE 15:54:39 10° ESE
Lacrosse 5 rocket 1.9 15:47:36 10° SSW 15:51:08 39° SE 15:54:36 10° ENE
Cosmos 2034 Rocket 4.1 15:45:24 10° S 15:51:42 79° E 15:58:06 10° NNE
IGS 5A 3.5 15:48:12 10° SE 15:52:02 50° ENE 15:55:55 10° N
Cosmos 1455 Rocket 3.0 15:49:11 10° S 15:53:28 67° E 15:57:49 10° NNE
MOS 1 Rocket 4.4 15:49:39 10° ESE 15:53:42 26° ENE 15:57:57 10° N
Cosmos 2084 3.6 15:49:42 10° SSW 15:53:51 60° SE 15:57:57 10° NE
Meteor 2-3 Rocket 4.2 15:49:29 10° NNW 15:55:03 65° W 16:00:34 10° S
Cosmos 1570 Rocket 4.1 15:50:25 10° NNW 15:55:43 59° ENE 16:00:59 10° SE
Cosmos 1867 4.2 15:50:41 10° NW 15:55:45 36° NNE 16:00:47 10° E
Cosmos 2084 Rocket 4.1 15:52:53 10° NW 15:56:46 34° NNE 16:00:39 10° E
NOSS 3-3 (A) 4.5 15:52:53 10° NW 15:59:49 67° NE 16:08:13 10° ESE
Cosmos 1315 Rocket 3.0 15:57:05 10° S 16:00:46 48° E 16:04:29 10° NNE
Cosmos 292 Rocket 3.8 15:58:55 10° SSW 16:03:43 89° ESE 16:08:33 10° NNE
SJ 16-02 3.7 16:01:41 10° W 16:04:19 16° NW 16:06:58 10° N
CENTAUR R/B 2.6 16:00:44 10° SW 16:06:25 74° SE 16:13:40 10° NE
Cosmos 2263 Rocket 3.4 16:02:59 10° NNW 16:07:23 22° NNE 16:11:47 10° E
Cosmos 1782 3.6 16:05:47 10° SSE 16:08:47 25° E 16:11:48 10° NNE
YAOGAN 1 4.1 16:06:54 10° E 16:09:27 16° NE 16:12:00 10° NNE
Cosmos 2266 Rocket 4.4 16:04:57 10° N 16:10:39 37° ENE 16:16:16 10° SE
Cosmos 1607 4.0 16:06:32 10° NW 16:12:41 61° NE 16:18:54 10° ESE
SL-16 R/B 2.6 16:07:02 10° NNE 16:13:18 72° ESE 16:19:30 10° S
Cosmos 405 Rocket 2.2 16:10:51 10° N 16:14:06 60° ENE 16:17:19 10° SSE
Cosmos 1733 2.4 16:12:34 10° NNE 16:14:16 26° ENE 16:15:57 10° SE
Cosmos 1356 Rocket 3.3 16:11:36 10° S 16:15:36 67° E 16:19:40 10° NNE
Cosmos 2227 Rocket 2.9 16:11:44 10° NNW 16:16:50 33° NE 16:21:54 10° ESE
CORIOLIS 4.1 16:13:11 10° SSE 16:18:28 70° ENE 16:23:49 10° NNW
SJ-12 4.0 16:18:09 10° SE 16:21:44 42° ENE 16:25:20 10° N
Cosmos 773 Rocket 3.9 16:16:36 10° NNW 16:21:48 67° ENE 16:27:01 10° SE
Cosmos 2369 Rocket 3.2 16:17:51 10° WSW 16:23:13 43° NW 16:28:39 10° NNE
USA 215 3.4 16:17:05 11° ENE 16:23:17 62° N 16:29:44 10° WNW
Cosmos 2228 2.9 16:23:38 10° S 16:27:51 77° E 16:32:08 10° NNE
Cosmos 1758 Rocket 3.4 16:23:46 10° N 16:28:06 66° ENE 16:32:22 10° SSE
Intercosmos 24 3.7 16:24:25 10° N 16:28:43 83° E 16:32:17 10° SSE
ARIANE 5 R/B 2.5 16:24:25 10° SSE 16:29:25 65° ENE 16:34:31 10° N
Cosmos 2208 Rocket 3.9 16:24:27 10° NNW 16:29:39 77° ENE 16:34:50 10° SSE
Cosmos 2278 Rocket 4.3 16:28:42 10° NW 16:31:55 15° NNW 16:35:09 10° NNE
Cosmos 1943 Rocket 4.3 16:29:00 10° NW 16:31:55 14° NNW 16:34:50 10° NNE
SPOT 1/Viking Rocket 4.0 16:27:40 10° SE 16:32:24 37° ENE 16:37:10 10° N
Cosmos 2098 Rocket 3.3 16:29:29 10° SSE 16:33:16 43° E 16:37:43 10° NNE
GEOS 3 Rocket 3.7 16:29:20 14° NE 16:34:06 73° SE 16:39:28 10° SW
Cosmos 1697 Rocket 4.0 16:34:41 10° SE 16:38:38 20° E 16:40:11 18° E
SAR-Lupe-5 4.5 16:37:01 13° NNE 16:39:36 78° ESE 16:42:40 10° SSW
Meteor 1-20 Rocket 4.2 16:36:16 10° N 16:41:42 58° ENE 16:47:03 10° SSE
AQUARIUS 4.1 16:39:28 10° SSE 16:43:48 64° ENE 16:48:11 10° N
USA 290 2.1 16:43:21 10° NNW 16:46:37 67° ENE 16:49:51 10° SE
SL-08 ROCKET BODY 4.4 16:43:28 10° N 16:49:24 86° W 16:55:25 10° S
IRS-1C 4.1 16:45:43 10° SSE 16:51:03 88° WSW 16:56:25 10° NNW
Cosmos 1626 Rocket 4.0 16:48:07 10° NNW 16:52:26 64° W 16:56:42 10° S
BREEZE-M DEB (TANK) 3.4 16:50:31 10° W 16:53:27 88° S 16:59:05 20° E
NOSS 2-2 (C) 2.5 16:51:58 10° SW 16:55:08 83° NW 16:56:15 35° NE
SMAP 3.5 16:50:53 10° S 16:55:30 64° WSW 17:00:09 10° NNW
CZ-2D R/B 2.8 16:52:47 10° S 16:55:55 80° WSW 16:59:05 10° NNW
Cosmos 783 Rocket 4.5 16:52:22 10° NNW 16:57:40 65° ENE 17:02:56 10° SE
NOSS 3-2 (C) 3.8 16:55:46 10° S 17:00:22 35° ESE 17:02:36 26° ENE
Cosmos 2151 2.8 16:57:01 10° N 17:01:11 85° E 17:05:21 10° SSE
Cosmos 1655 Rocket 4.2 16:55:31 10° N 17:01:32 46° ENE 17:07:30 10° SE
Landsat 7 4.0 16:56:59 10° S 17:01:38 72° WSW 17:06:19 10° NNW
NOSS 3-2 (A) 3.1 16:56:41 10° SW 17:01:47 75° SE 17:05:38 23° NE
Cosmos 1241 Rocket 4.5 16:57:05 10° SSW 17:03:24 70° SE 17:07:33 22° NE
Cosmos 1606 Rocket 4.1 16:59:22 10° SSE 17:03:25 37° E 17:04:46 29° NE
BlueWalker 3 3.6 17:01:47 10° W 17:05:00 30° SSW 17:08:12 10° SSE
Cosmos 1743 2.7 17:02:37 10° NNW 17:05:52 64° W 17:09:04 10° S
ATLAS CENTAUR R/B 1.9 17:04:19 10° NW 17:07:26 42° SW 17:10:28 10° SSE
Cosmos 1076 Rocket 4.0 17:03:27 10° N 17:07:27 37° ENE 17:09:56 20° SE
UNK 3.9 17:02:52 10° NNE 17:07:29 75° WNW 17:12:02 10° SSW
Okean 1-7 Rocket 3.4 17:04:48 10° N 17:09:15 75° E 17:13:36 10° SSE
Cosmos 2297 Rocket 2.5 17:04:42 10° NW 17:10:22 70° WSW 17:15:59 10° SSE
Resurs 1-3 3.7 17:06:54 10° SE 17:11:01 46° ENE 17:15:09 10° N
Meteor 1-25 Rocket 4.2 17:05:53 10° N 17:11:46 76° ENE 17:17:33 10° SSE
Lacrosse 4 Rocket 2.6 17:08:07 10° WSW 17:11:52 35° NW 17:14:13 19° NNE
Cosmos 1544 Rocket 3.9 17:07:55 10° SSW 17:12:18 68° WNW 17:16:44 10° N
Cosmos 1656 3.6 17:08:59 10° SSW 17:14:37 85° ESE 17:18:28 22° NNE
Cosmos 1461 3.7 17:12:22 10° S 17:15:26 29° SE 17:15:26 29° SE
Cosmos 1503 Rocket 4.1 17:10:51 10° S 17:15:55 53° ESE 17:18:11 31° NE
IRIDIUM 104 4.4 17:11:09 10° N 17:16:24 80° W 17:21:37 10° S
SJ-7 4.2 17:17:19 49° E 17:17:38 51° ENE 17:21:18 10° N
Meteor 2-10 4.4 17:13:46 10° N 17:18:43 39° ENE 17:20:56 27° ESE
Cosmos 2279 Rocket 4.4 17:16:33 10° SSW 17:22:41 62° WNW 17:28:53 10° N
Cosmos 1354 Rocket 4.3 17:17:51 10° S 17:22:49 44° ESE 17:23:57 38° ENE
Cosmos 2219 3.7 17:18:44 10° NNW 17:24:07 39° NE 17:25:10 36° ENE
SKYMED 2 3.6 17:23:07 42° NE 17:24:14 55° E 17:28:30 10° S
Meteor 1-5 Rocket 4.0 17:21:24 10° N 17:26:42 67° ENE 17:32:04 10° SSE
Spot 4 Rocket 3.9 17:21:40 10° SSE 17:26:45 73° ENE 17:31:52 10° NNW
COSMO-SKYMED 1 3.5 17:29:12 30° SE 17:29:12 30° SE 17:31:43 10° S
Lacrosse 5 rocket 1.2 17:24:23 10° W 17:28:05 59° NNW 17:28:28 55° NNE
Cosmos 1726 Rocket 3.8 17:25:32 10° S 17:30:01 51° E 17:30:23 50° ENE
PSLV R/B 3.3 17:28:53 38° SE 17:30:13 63° ENE 17:34:14 10° N
Cosmos 1602 Rocket 4.5 17:25:57 10° NNW 17:30:14 50° W 17:34:27 10° S
MOS 1 Rocket 4.1 17:26:36 10° S 17:31:22 58° W 17:36:27 10° NNW
CZ-4 R/B 4.5 17:27:46 10° S 17:31:43 73° WSW 17:35:40 10° NNW
SL-19 R/B 4.1 17:30:13 10° SSE 17:35:33 76° ENE 17:41:12 10° NNW
CZ-4C R/B 3.1 17:29:01 10° NW 17:35:46 72° SW 17:44:14 10° SSE
Cosmos 2084 Rocket 3.8 17:31:38 10° NW 17:35:48 62° SW 17:37:51 28° SSE
Cosmos 1777 Rocket 3.9 17:32:43 10° SSW 17:37:58 87° ESE 17:40:21 34° NNE
CZ-2D R/B 3.5 17:35:15 10° SSE 17:39:28 79° WSW 17:43:40 10° NNW
Resurs 01 Rocket 3.6 17:42:49 16° N 17:42:49 16° N 17:43:50 10° N
Cosmos 1867 3.7 17:34:18 10° NW 17:39:46 72° SW 17:44:00 17° SSE
Cosmos 1980 Rocket 3.6 17:35:21 10° SSE 17:37:44 21° SE 17:37:44 21° SE
Cosmos 1782 4.5 17:40:21 10° SW 17:43:32 29° WNW 17:46:14 13° NNW
YAOGAN 1 2.5 17:40:29 10° SSE 17:44:44 84° WSW 17:49:02 10° NNW
Cosmos 1844 Rocket 4.0 17:41:20 10° NNW 17:44:54 24° NNE 17:44:54 24° NNE
Cosmos 2263 Rocket 2.0 17:46:34 10° NNW 17:52:16 74° ENE 17:53:46 50° SE
Cosmos 1953 Rocket 3.4 17:47:56 10° N 17:52:23 88° ENE 17:53:34 49° SSE
Cosmos 1486 Rocket 4.4 17:47:24 10° SW 17:52:34 61° WNW 17:55:12 29° N
NOSS 2-2 (D) 4.3 17:52:35 10° WSW 17:54:45 34° W 17:54:45 34° W
SL-16 R/B 4.2 17:51:10 10° N 17:56:25 29° NW 18:01:38 10° WSW
CENTAUR R/B 3.4 17:51:34 10° W 17:57:34 46° NNW 18:00:51 30° NNE
Cosmos 2360 4.4 17:52:47 10° SW 17:58:30 68° NW 18:00:53 36° NNE
USA 81 3.9 17:53:43 10° N 17:59:01 81° E 18:04:17 10° S
Cosmos 1933 3.7 17:56:04 10° SSW 17:59:50 57° WNW 17:59:50 57° WNW
USA 238 DEB 4.4 17:54:33 10° S 17:58:22 30° SE 17:58:22 30° SE
USA 238 4.5 17:54:40 10° S 17:58:26 29° SE 17:58:26 29° SE
Cosmos 2227 Rocket 2.5 17:55:41 10° NW 18:01:17 64° WSW 18:06:42 11° SSE
Nadezhda 2 Rocket 4.3 17:55:17 10° N 18:01:25 62° ENE 18:01:58 59° E
USA 215 3.2 18:04:26 54° E 18:06:04 79° NNE 18:12:38 10° WNW
Cosmos 2369 Rocket 4.3 18:05:18 10° WNW 18:08:48 16° NNW 18:11:14 13° N
NOAA 6 4.1 18:05:17 10° S 18:10:24 74° WSW 18:15:32 10° NNW
USA 281 3.9 18:11:45 36° NNE 18:11:45 36° NNE 18:16:42 10° NNW
Cosmos 1943 Rocket 4.4 18:16:17 10° NNW 18:17:42 12° N 18:17:42 12° N
Cosmos 2278 Rocket 4.4 18:16:21 10° NNW 18:18:15 12° N 18:18:15 12° N
Cosmos 990 Rocket 4.0 18:15:29 10° SSW 18:20:06 71° SW 18:20:06 71° SW
Cosmos 1697 Rocket 2.6 18:16:17 10° SSW 18:21:53 84° WNW 18:21:56 84° NW
Cosmos 2082 4.3 18:40:21 10° NNW 18:44:30 50° NW 18:44:30 50° NW
NOSS 3-2 (C) 3.8 18:45:33 10° WSW 18:50:02 56° WNW 18:50:02 56° WNW
Lacrosse 4 Rocket 4.3 18:49:11 10° NW 18:49:43 11° NW 18:49:43 11° NW
NOSS 3-2 (A) 4.3 18:47:51 10° W 18:52:59 41° NNW 18:52:59 41° NNW
Lacrosse 5 rocket 4.5 19:02:01 10° WNW 19:02:04 10° WNW 19:02:04 10° WNW
Cosmos 2219 4.3 19:02:53 10° NW 19:07:06 42° WNW 19:07:06 42° WNW
Cosmos 1980 Rocket 4.3 19:17:57 10° SW 19:19:32 19° SW 19:19:32 19° SW
Cosmos 2263 Rocket 4.2 19:31:13 10° NW 19:35:30 24° W 19:35:30 24° W
USA 215 4.5 19:51:47 36° W 19:51:47 36° W 19:55:45 10° WNW
CENTAUR R/B 4.1 19:43:29 10° WNW 19:47:57 32° NNW 19:47:57 32° NNW
